Location: Leiter
(44.7178°N, 106.2687°W)
Time: 22:02:20
(UTC+00:00)

ESTCUBE 1 - Pass Details

Date: 02 July 2022
Orbit: 645 x 657 km, 97.9° (Epoch: 16 August)

Event Time Altitude Azimuth Distance (km) Brightness Sun altitude
Exits shadow 04:05:53 11° 112° (ESE) 1,967 ? -10.4°
Maximum altitude 04:09:01 22° 65° (ENE) 1,430 ? -10.8°
Drops below altitude 10° 04:12:24 10° 15° (NNE) 2,059 ? -11.2°
Sets 04:15:02 0° 0° (N) 2,977 ? -11.5°
